User: anonymous   Login
Location: *
(43.9905°S, 176.4941°W)
Time: 12:41:29
(UTC+00:00)
Language:

CARTOSAT-1 - Orbit

View from above orbital plane
View from above orbital plane
View from above satellite
View from above satellite

Ground track
Ground track

The orbit data is extracted from the following two-line orbital elements,

1 28649U 05017A   20053.17058188  .00000071  00000-0  14985-4 0  9999
2 28649  97.8263 124.4687 0002816  98.8574 261.2959 14.83680258801273
Epoch (UTC): 22 February 2020 04:05:38
Eccentricity: 0.0002816
inclination: 97.8263°
perigee height: 616 km
apogee height: 620 km
right ascension of ascending node: 124.4687°
argument of perigee: 98.8574°
revolutions per day: 14.83680258
mean anomaly at epoch: 261.2959°
orbit number at epoch: 80127

The dashed part of the orbit path shows where the satellite is in the earth's shadow,  

DLR